Regional Weather Roundup
Issued by NWS Kansas City/Pleasant Hill, MO

Home | Current Version | Previous Version | Graphics & Text | Print | Product List | Glossary Off
Versions: 1 2 3 4 5 6 7 8 9 10 11 12 13 14 15 16 17 18 19 20 21 22 23 24 25 26 27 28 29 30 31 32 33 34 35 36 37 38 39 40 41 42 43 44 45 46 47 48 49 50

000
ASUS43 KEAX 301310
RWREAX

WEATHER ROUNDUP FOR EASTERN KANSAS AND NORTHWEST MISSOURI
NATIONAL WEATHER SERVICE KANSAS CITY/PLEASANT HILL MO
700 AM CST FRI JAN 30 2015

KSZ040-057-103>105-MOZ028-029-037-043-301400-
...KANSAS CITY METROPOLITAN AREA...

CITY           SKY/WX    TMP DP  RH WIND       PRES   REMARKS
K.C. INTL      PTCLDY    23  19  85 NE3       30.53R
K.C. DOWNTOWN  PTCLDY    24  20  84 CALM      30.55R
LEES SUMMIT    PTCLDY    23  19  85 N3        30.54R
OLATHE - IXD   PTCLDY    20  19  96 NE5       30.53S WCI  13
OLATHE - OJC   PTCLDY    21  20  96 N5        30.52R WCI  15
LAWRENCE       PTCLDY    15  11  83 CALM      30.55S

$$

MOZ001>008-011>017-020>025-030>033-038>040-044>046-053-054-301400-
...NORTHERN AND CENTRAL MISSOURI...

CITY           SKY/WX    TMP DP  RH WIND       PRES   REMARKS
ST. JOSEPH     PTCLDY    12  10  92 CALM      30.56R FOG
MOSBY            N/A     18  18 100 CALM      30.55S
WARRENSBURG    CLEAR     21  19  93 CALM      30.55R
WHITEMAN AFB   CLEAR     20  17  89 N5        30.54R WCI  13
CLINTON        CLEAR     27  23  86 MISG      30.55R
SEDALIA        CLEAR     23  19  85 N7        30.54R WCI  15
WARSAW         NOT AVBL
MARSHALL       CLEAR     27  21  80 N3        30.55R
CHILLICOTHE      N/A     22  17  81 NE6       30.56S WCI  14
MOBERLY        CLEAR     21  16  79 CALM      30.54R
KIRKSVILLE     CLEAR     18  16  92 NE3       30.54R

$$

MOZ041-047>049-056>058-063>065-088>090-097-301400-
...EASTERN AND SOUTHERN MISSOURI...

CITY           SKY/WX    TMP DP  RH WIND       PRES   REMARKS
ST. LOUIS INTL MOCLDY    30  18  60 N14       30.53R WCI  19
SPIRIT OF STL  CLOUDY    29  19  66 N8        30.54R WCI  21
COLUMBIA       CLEAR     21  18  88 N6        30.52R WCI  13
JEFFERSON CITY CLEAR     23  19  85 CALM      30.55R
MEXICO         CLEAR     25  23  93 N5        30.53R WCI  19
HANNIBAL       CLEAR     23  16  74 N5        30.54S WCI  17
ROLLA          CLEAR     22  19  89 N7        30.47S WCI  13
LEBANON        CLEAR     25  21  86 CALM      30.50R
OSAGE BEACH    CLEAR     25  19  80 NW3       30.52R
SPRINGFIELD    FAIR      22  19  89 N7        30.49R WCI  13
BRANSON        PTCLDY    19  18  93 CALM      30.50R
NEVADA         PTCLDY    23  21  93 N5        30.55R WCI  17
JOPLIN         CLEAR     24  21  88 VRB3      30.53R
WEST PLAINS    CLEAR     25  19  78 N6        30.48R WCI  18

$$

IAZ060-094-KSZ022-034>040-054-083-096-NEZ052-066-093-301400-
...KANSAS...SOUTHEAST NEBRASKA AND IOWA...

CITY           SKY/WX    TMP DP  RH WIND       PRES   REMARKS
TOPEKA         PTCLDY    18  15  88 CALM      30.55S
MANHATTAN      PTCLDY    16  13  88 CALM      30.55R
EMPORIA        CLEAR     20  18  92 W3        30.52S
CHANUTE        PTCLDY    21  19  92 N3        30.53S
WICHITA        CLOUDY    29  22  75 CALM      30.53R
OMAHA          PTCLDY    22  16  78 CALM      30.53S
LINCOLN        PTCLDY    13   9  84 CALM      30.54R
FALLS CITY     PTCLDY    16  12  84 W3        30.54R
LAMONI         CLEAR     16  13  88 NE5       30.52S WCI   9
DES MOINES     CLEAR     18  12  77 N3        30.55S

$$




USA.gov is the U.S. government's official web portal to all federal, state and local government web resources and services.